Lander, WY

1:07 PM MDT on May 22, 2017 (GMT -0600)
Hunt

Weather History for KLND - October, 2011

Change the Weather History Date:

Saturday, October 22, 2011

  Actual Average Record
Temperature  
Mean Temperature 50 °F 43 °F  
Max Temperature 64 °F 56 °F 75 °F (1954)
Min Temperature 36 °F 31 °F 11 °F (1936)
Degree Days  
Heating Degree Days 15 22  
Month to date heating degree days 294 389  
Since 1 July heating degree days 401 648  
Cooling Degree Days 0 0  
Month to date cooling degree days 10 0  
Year to date cooling degree days 576 472  
Moisture  
Dew Point 28 °F    
Average Humidity 50    
Maximum Humidity 76    
Minimum Humidity 23    
Precipitation  
Precipitation 0.00 in 0.04 in 1.04 in (1947)
Month to date precipitation 1.76 0.96  
Year to date precipitation 13.32 10.89  
Snow  
Snow 0.00 in 0.40 in - ()
Month to date snowfall 3.2 6.5  
Since 1 July snowfall 3.2 9.2  
Since 1 September snowfall 3.2 9.2  
Snow Depth 0.00 in    
Sea Level Pressure  
Sea Level Pressure 30.07 in    
Wind  
Wind Speed 3 mph (WSW)    
Max Wind Speed 12 mph    
Max Gust Speed -    
Visibility 10 miles    
Events      
T = Trace of Precipitation, MM = Missing Value Source: NWS Daily Summary

Daily Weather History Graph

Daily Weather History Graph

Search for Another Location

Airport or City:

Trip Planner

Search our weather history database for the weather conditions in past years. The results will help you decide how hot, cold, wet, or windy it might be!

Date:

Astronomy

Oct. 22, 2011 Rise Set
Actual Time 7:36 AM MDT 6:21 PM MDT
Civil Twilight 7:07 AM MDT 6:50 PM MDT
Nautical Twilight 6:34 AM MDT 7:23 PM MDT
Astronomical Twilight 6:01 AM MDT 7:56 PM MDT
Moon 2:30 AM MDT 3:47 PM MDT
Length of Visible Light 11h 42m
Length of Day
10h 45m
Waning Crescent, 23% of the Moon is Illuminated
Oct 22
Waning Crescent
Oct 26
New
Nov 2
First Quarter
Nov 10
Full
Nov 18
Last Quarter

Hourly Weather History & Observations

Time (MDT) Temp. Windchill Dew Point Humidity Pressure Visibility Wind Dir Wind Speed Gust Speed Precip Events Conditions
12:53 AM 48.0 °F - 30.0 °F 50% 30.05 in 10.0 mi Calm Calm - N/A   Scattered Clouds
1:53 AM 48.0 °F - 30.9 °F 52% 30.05 in 10.0 mi Calm Calm - N/A   Scattered Clouds
2:53 AM 44.1 °F 40.1 °F 30.9 °F 60% 30.07 in 10.0 mi SW 6.9 mph - N/A   Clear
3:53 AM 45.0 °F 42.6 °F 30.0 °F 56% 30.06 in 10.0 mi WSW 4.6 mph - N/A   Clear
4:53 AM 42.1 °F - 32.0 °F 67% 30.07 in 10.0 mi Calm Calm - N/A   Clear
5:53 AM 45.0 °F - 30.0 °F 56% 30.08 in 10.0 mi Calm Calm - N/A   Clear
6:53 AM 37.0 °F 33.3 °F 30.0 °F 76% 30.12 in 10.0 mi ENE 4.6 mph - N/A   Clear
7:53 AM 37.9 °F - 30.0 °F 73% 30.15 in 10.0 mi Calm Calm - N/A   Clear
8:53 AM 48.9 °F - 30.9 °F 50% 30.12 in 10.0 mi WSW 3.5 mph - N/A   Clear
9:53 AM 46.9 °F - 34.0 °F 61% 30.14 in 10.0 mi SSW 3.5 mph - N/A   Clear
10:53 AM 53.1 °F - 34.0 °F 48% 30.13 in 10.0 mi Calm Calm - N/A   Clear
11:53 AM 59.0 °F - 30.0 °F 33% 30.10 in 10.0 mi West 6.9 mph - N/A   Clear
12:53 PM 62.1 °F - 28.0 °F 28% 30.09 in 10.0 mi NNW 11.5 mph - N/A   Clear
1:53 PM 62.1 °F - 26.1 °F 25% 30.06 in 10.0 mi Calm Calm - N/A   Clear
2:53 PM 63.0 °F - 26.1 °F 25% 30.05 in 10.0 mi Variable 3.5 mph - N/A   Clear
3:53 PM 63.0 °F - 24.1 °F 23% 30.04 in 10.0 mi SSE 3.5 mph - N/A   Clear
4:53 PM 62.1 °F - 25.0 °F 24% 30.03 in 10.0 mi SE 3.5 mph - N/A   Clear
5:53 PM 60.1 °F - 25.0 °F 26% 30.00 in 10.0 mi Calm Calm - N/A   Clear
6:53 PM 55.0 °F - 24.1 °F 30% 30.05 in 10.0 mi West 10.4 mph - N/A   Clear
7:53 PM 55.9 °F - 21.9 °F 27% 30.05 in 10.0 mi NW 5.8 mph - N/A   Clear
8:53 PM 52.0 °F - 23.0 °F 32% 30.04 in 10.0 mi NW 6.9 mph - N/A   Clear
9:53 PM 53.1 °F - 23.0 °F 31% 30.06 in 10.0 mi Calm Calm - N/A   Clear
10:53 PM 48.9 °F - 26.1 °F 41% 30.08 in 10.0 mi West 6.9 mph - N/A   Clear
11:53 PM 46.0 °F - 27.0 °F 47% 30.05 in 10.0 mi Calm Calm - N/A   Clear